• In Hungary
  • List of Countries
  • For 7 days
  • Water Temperature
  • Satellite Maps
  • Weather Map
  • News
  • Weather Widgets
  • user-avatar
    Login

    Hourly Weather Prachin Buri

    Today, 20 May, Sunday

    Time Temperature Precipitation Wind Pressure Humidity
    00:00 +31°C° 0.5 mm 1 mps 754 mmHg 70%
    01:00 +31°C° 0 mm 1 mps 754 mmHg 71%
    02:00 +31°C° 0 mm 1 mps 754 mmHg 72%
    03:00 +30°C° 0 mm 1 mps 754 mmHg 73%
    04:00 +30°C° 0 mm 1 mps 754 mmHg 74%
    05:00 +30°C° 0 mm 1 mps 754 mmHg 73%
    06:00 +31°C° 0 mm 1 mps 755 mmHg 73%
    07:00 +31°C° 0 mm 1 mps 755 mmHg 69%
    08:00 +33°C° 0.2 mm 1 mps 755 mmHg 63%
    09:00 +35°C° 0.2 mm 1 mps 755 mmHg 57%
    10:00 +36°C° 0.2 mm 1 mps 755 mmHg 50%
    11:00 +37°C° 0.2 mm 1 mps 755 mmHg 47%
    12:00 +39°C° 0.2 mm 2 mps 754 mmHg 44%
    13:00 +40°C° 0 mm 1 mps 754 mmHg 41%
    14:00 +40°C° 0.2 mm 1 mps 754 mmHg 41%
    15:00 +40°C° 0.2 mm 1 mps 753 mmHg 41%
    16:00 +40°C° 0.2 mm 1 mps 753 mmHg 40%
    17:00 +39°C° 0 mm 1 mps 753 mmHg 43%
    18:00 +37°C° 0 mm 1 mps 753 mmHg 46%
    19:00 +36°C° 0 mm 2 mps 753 mmHg 49%
    20:00 +36°C° 0 mm 2 mps 753 mmHg 54%
    21:00 +35°C° 0 mm 2 mps 754 mmHg 59%
    22:00 +34°C° 0 mm 2 mps 754 mmHg 64%
    23:00 +32°C° 0.1 mm 2 mps 754 mmHg 67%

    Tomorrow, 21 May, Monday

    Time Temperature Precipitation Wind Pressure Humidity
    00:00 +32°C° 0.1 mm 2 mps 754 mmHg 70%
    01:00 +31°C° 0.1 mm 1 mps 754 mmHg 73%
    02:00 +31°C° 0.9 mm 1 mps 754 mmHg 74%
    03:00 +31°C° 0.9 mm 1 mps 754 mmHg 75%
    04:00 +30°C° 0.9 mm 1 mps 754 mmHg 76%
    05:00 +31°C° 0.3 mm 1 mps 754 mmHg 75%
    06:00 +31°C° 0.3 mm 1 mps 754 mmHg 74%
    07:00 +31°C° 0.3 mm 1 mps 755 mmHg 73%
    08:00 +33°C° 0.3 mm 1 mps 755 mmHg 66%
    09:00 +35°C° 0.3 mm 2 mps 755 mmHg 59%
    10:00 +37°C° 0.3 mm 2 mps 755 mmHg 52%
    11:00 +38°C° 0.3 mm 2 mps 755 mmHg 48%
    12:00 +40°C° 0.3 mm 2 mps 754 mmHg 44%
    13:00 +41°C° 0.3 mm 1 mps 754 mmHg 40%
    14:00 +40°C° 0 mm 2 mps 754 mmHg 41%
    15:00 +40°C° 0 mm 2 mps 753 mmHg 42%
    16:00 +39°C° 0 mm 2 mps 752 mmHg 43%
    17:00 +38°C° 0.1 mm 3 mps 753 mmHg 47%
    18:00 +37°C° 0.1 mm 3 mps 753 mmHg 52%
    19:00 +36°C° 0.1 mm 3 mps 753 mmHg 56%
    20:00 +35°C° 0.4 mm 3 mps 754 mmHg 61%
    21:00 +34°C° 0.4 mm 3 mps 754 mmHg 66%
    22:00 +32°C° 0.4 mm 2 mps 755 mmHg 71%
    23:00 +31°C° 0.3 mm 2 mps 755 mmHg 72%

    Day after tomorrow, 22 May, Tuesday

    Time Temperature Precipitation Wind Pressure Humidity
    00:00 +31°C° 0.3 mm 2 mps 755 mmHg 74%
    01:00 +31°C° 0.3 mm 1 mps 755 mmHg 75%
    02:00 +30°C° 0.2 mm 1 mps 754 mmHg 76%
    03:00 +30°C° 0.2 mm 1 mps 754 mmHg 76%
    04:00 +30°C° 0.2 mm 1 mps 754 mmHg 77%
    05:00 +30°C° 0.2 mm 1 mps 754 mmHg 76%
    06:00 +31°C° 0.2 mm 1 mps 755 mmHg 75%
    07:00 +31°C° 0.2 mm 2 mps 755 mmHg 75%
    08:00 +32°C° 0.3 mm 2 mps 756 mmHg 68%
    09:00 +35°C° 0.3 mm 2 mps 756 mmHg 61%
    10:00 +37°C° 0.3 mm 2 mps 756 mmHg 54%
    11:00 +38°C° 0.4 mm 2 mps 756 mmHg 50%
    12:00 +39°C° 0.4 mm 2 mps 755 mmHg 47%
    13:00 +39°C° 0.4 mm 1 mps 755 mmHg 44%
    14:00 +39°C° 0.1 mm 2 mps 754 mmHg 45%
    15:00 +39°C° 0.1 mm 2 mps 753 mmHg 45%
    16:00 +39°C° 0.1 mm 2 mps 753 mmHg 46%
    17:00 +37°C° 0.3 mm 2 mps 753 mmHg 50%
    18:00 +36°C° 0.3 mm 2 mps 754 mmHg 54%
    19:00 +35°C° 0.3 mm 2 mps 754 mmHg 59%
    20:00 +34°C° 0.2 mm 2 mps 754 mmHg 63%
    21:00 +32°C° 0.2 mm 2 mps 755 mmHg 66%
    22:00 +33°C° 0.2 mm 3 mps 755 mmHg 70%
    23:00 +31°C° 1 mm 2 mps 755 mmHg 74%

    23 May, Wednesday

    Time Temperature Precipitation Wind Pressure Humidity
    00:00 +31°C° 1 mm 2 mps 756 mmHg 77%
    01:00 +30°C° 1 mm 2 mps 756 mmHg 80%
    02:00 +30°C° 0.1 mm 2 mps 755 mmHg 80%
    03:00 +30°C° 0.1 mm 1 mps 755 mmHg 80%
    04:00 +30°C° 0.1 mm 1 mps 754 mmHg 80%
    05:00 +30°C° 0 mm 1 mps 755 mmHg 78%
    06:00 +30°C° 0 mm 1 mps 755 mmHg 77%
    07:00 +30°C° 0 mm 1 mps 756 mmHg 76%
    08:00 +32°C° 0.2 mm 1 mps 756 mmHg 68%
    09:00 +34°C° 0.2 mm 1 mps 756 mmHg 61%
    10:00 +37°C° 0.2 mm 2 mps 756 mmHg 54%
    11:00 +37°C° 0.5 mm 2 mps 756 mmHg 51%
    12:00 +38°C° 0.5 mm 2 mps 755 mmHg 49%
    13:00 +39°C° 0.5 mm 2 mps 755 mmHg 46%
    14:00 +38°C° 0.4 mm 3 mps 754 mmHg 50%
    15:00 +37°C° 0.4 mm 3 mps 754 mmHg 54%
    16:00 +36°C° 0.4 mm 4 mps 753 mmHg 57%
    17:00 +35°C° 0.3 mm 3 mps 754 mmHg 61%
    18:00 +34°C° 0.3 mm 3 mps 754 mmHg 65%
    19:00 +32°C° 0.3 mm 2 mps 754 mmHg 68%
    20:00 +31°C° 0.1 mm 2 mps 754 mmHg 70%
    21:00 +31°C° 0.1 mm 2 mps 755 mmHg 72%
    22:00 +30°C° 0.1 mm 2 mps 755 mmHg 73%
    23:00 +30°C° 0 mm 2 mps 755 mmHg 74%

    24 May, Thursday

    Time Temperature Precipitation Wind Pressure Humidity
    00:00 +29°C° 0 mm 2 mps 755 mmHg 75%
    01:00 +29°C° 0 mm 2 mps 755 mmHg 76%
    02:00 +29°C° 0.1 mm 2 mps 755 mmHg 76%
    03:00 +29°C° 0.1 mm 2 mps 755 mmHg 77%
    04:00 +28°C° 0.1 mm 2 mps 754 mmHg 77%
    05:00 +29°C° 0 mm 2 mps 755 mmHg 76%
    06:00 +29°C° 0 mm 2 mps 755 mmHg 75%
    07:00 +29°C° 0 mm 2 mps 756 mmHg 74%
    08:00 +31°C° 0 mm 2 mps 756 mmHg 66%
    09:00 +34°C° 0 mm 2 mps 756 mmHg 59%
    10:00 +36°C° 0 mm 2 mps 757 mmHg 52%
    11:00 +37°C° 0.2 mm 3 mps 756 mmHg 48%
    12:00 +38°C° 0.2 mm 3 mps 755 mmHg 45%
    13:00 +39°C° 0.2 mm 3 mps 755 mmHg 41%
    14:00 +39°C° 0.2 mm 3 mps 754 mmHg 43%
    15:00 +38°C° 0.2 mm 3 mps 754 mmHg 45%
    16:00 +38°C° 0.2 mm 4 mps 753 mmHg 47%
    17:00 +37°C° 0.3 mm 3 mps 754 mmHg 53%
    18:00 +35°C° 0.3 mm 3 mps 754 mmHg 59%
    19:00 +34°C° 0.3 mm 3 mps 754 mmHg 65%
    20:00 +32°C° 0.8 mm 2 mps 755 mmHg 69%
    21:00 +31°C° 0.8 mm 2 mps 755 mmHg 72%
    22:00 +31°C° 0.8 mm 2 mps 756 mmHg 75%
    23:00 +30°C° 0.2 mm 2 mps 756 mmHg 77%

    25 May, Friday

    Time Temperature Precipitation Wind Pressure Humidity
    00:00 +30°C° 0.2 mm 2 mps 755 mmHg 78%
    01:00 +29°C° 0.2 mm 1 mps 755 mmHg 79%
    02:00 +29°C° 0 mm 2 mps 755 mmHg 79%
    03:00 +29°C° 0 mm 2 mps 755 mmHg 80%
    04:00 +29°C° 0 mm 2 mps 754 mmHg 80%
    05:00 +29°C° 0.1 mm 2 mps 755 mmHg 79%
    06:00 +30°C° 0.1 mm 2 mps 755 mmHg 79%
    07:00 +30°C° 0.1 mm 2 mps 756 mmHg 78%
    08:00 +32°C° 0 mm 2 mps 756 mmHg 71%
    09:00 +34°C° 0 mm 2 mps 756 mmHg 63%
    10:00 +36°C° 0 mm 3 mps 756 mmHg 56%
    11:00 +37°C° 0.2 mm 3 mps 756 mmHg 52%
    12:00 +38°C° 0.2 mm 3 mps 755 mmHg 47%
    13:00 +39°C° 0.2 mm 3 mps 754 mmHg 43%
    14:00 +39°C° 0.5 mm 3 mps 754 mmHg 46%
    15:00 +38°C° 0.5 mm 3 mps 753 mmHg 48%
    16:00 +38°C° 0.5 mm 3 mps 753 mmHg 51%
    17:00 +36°C° 0.2 mm 3 mps 753 mmHg 55%
    18:00 +35°C° 0.2 mm 3 mps 754 mmHg 60%
    19:00 +34°C° 0.2 mm 3 mps 754 mmHg 65%
    20:00 +33°C° 0.1 mm 3 mps 754 mmHg 69%
    21:00 +31°C° 0.1 mm 2 mps 755 mmHg 72%
    22:00 +31°C° 0.1 mm 2 mps 755 mmHg 76%
    23:00 +30°C° 0.2 mm 2 mps 755 mmHg 78%
    Show more